Flag for Belgium Weather past 2 weeks in Brussels, Belgium

Now
52 °F

Clear.


Feels Like: 49 °F
Forecast: 54 / 60 °F
Wind: 8 mph from Southwest

Location: Brussels National Airport

Current Time: Sep 4, 2015 at 8:56:22 AM

Latest Report: Sep 4, 2015 at 7:50 AM


Visibility: 10 mi

Pressure: 29.98 "Hg

Humidity: 88%

Dew point: 48 °F

Location of BrusselsLocation

Historic Weather in Brussels — Graph

°F

Brussels temperature yesterday

Maximum temperature yesterday: 63 °F (at 12:50 PM)
Minimum temperature yesterday: 50 °F (at 2:20 AM)
Average temperature yesterday: 55 °F

Past Weeks' High & Low Weather Summary

 TemperatureHumidityPressure
High86 °F (Aug 30, 2:50 PM)94% (Aug 21, 4:50 AM)30.24 "Hg (Aug 21, 4:50 AM)
Low50 °F (Aug 29, 7:20 AM)32% (Aug 22, 3:50 PM)29.47 "Hg (Aug 24, 2:20 PM)
Average65 °F75%29.95 "Hg
* Reported Aug 20 7:20 AM — Sep 4 7:20 AM, Brussels, Weather by CustomWeather, © 2015

Note: Actual official high and low records may vary slightly from our data, if they occured in-between our weather recording intervals... More about our weather records

Advertising

Brussels weather history for previous 24 hours

 ConditionsComfort  
Time TempWeatherWind HumidityBarometerVisibility
7:20 AM
Fri, Sep 4
52 °FPassing clouds.7 mph88%29.98 "HgN/A
6:50 AM52 °FPassing clouds.7 mph88%29.98 "HgN/A
6:20 AM52 °FClear.7 mph88%29.98 "Hg10 mi
5:50 AM52 °FPassing clouds.7 mph88%29.98 "HgN/A
5:20 AM52 °FClear.7 mph94%29.98 "Hg10 mi
4:50 AM54 °FClear.7 mph77%29.98 "Hg10 mi
4:20 AM54 °FClear.8 mph77%29.98 "Hg10 mi
3:50 AM54 °FClear.6 mph77%29.98 "Hg10 mi
3:20 AM54 °FClear.7 mph82%29.98 "Hg10 mi
2:50 AM54 °FClear.8 mph82%29.98 "Hg10 mi
2:20 AM54 °FClear.7 mph82%29.98 "Hg10 mi
1:50 AM54 °FClear.6 mph88%29.98 "Hg10 mi
1:20 AM54 °FClear.5 mph82%29.98 "Hg10 mi
12:50 AM54 °FClear.3 mph82%29.98 "Hg10 mi
11:20 PM
Thu, Sep 3
54 °FPassing clouds.6 mph88%29.98 "HgN/A
10:50 PM55 °FPassing clouds.5 mph88%29.98 "HgN/A
10:20 PM55 °FPassing clouds.2 mph82%29.98 "HgN/A
9:50 PM55 °FPassing clouds.5 mph88%29.98 "HgN/A
9:20 PM55 °FPartly sunny.6 mph88%29.98 "HgN/A
8:50 PM55 °FScattered clouds.6 mph88%29.98 "HgN/A
8:20 PM55 °FScattered clouds.6 mph88%29.98 "HgN/A
7:50 PM55 °FScattered clouds.7 mph88%29.98 "HgN/A
7:20 PM55 °FScattered clouds.6 mph88%29.98 "HgN/A
6:50 PM57 °FScattered clouds.3 mph82%29.98 "HgN/A
6:20 PM57 °FScattered clouds.6 mph88%29.95 "HgN/A
5:50 PM57 °FScattered clouds.5 mph82%29.95 "HgN/A
5:20 PM55 °FScattered clouds.9 mph88%29.95 "HgN/A
4:50 PM57 °FScattered showers. Partly sunny.6 mph82%29.98 "HgN/A
4:20 PM57 °FPartly sunny.5 mph82%29.95 "HgN/A
3:50 PM59 °FScattered showers. Scattered clouds.5 mph72%29.98 "HgN/A
3:20 PM57 °FScattered showers. Scattered clouds.1 mph77%29.98 "HgN/A
2:50 PM55 °FThunderstorms. Partly sunny.8 mph77%29.98 "Hg5 mi
2:20 PM59 °FScattered showers. Partly sunny.14 mph63%29.95 "HgN/A
1:50 PM63 °FPartly sunny.8 mph64%29.95 "HgN/A
1:20 PM63 °FScattered clouds.9 mph64%29.95 "HgN/A
12:50 PM63 °FScattered clouds.9 mph64%29.95 "HgN/A
12:20 PM61 °FPassing clouds.8 mph72%29.98 "HgN/A
11:50 AM59 °FPassing clouds.10 mph77%29.98 "HgN/A
11:20 AM59 °FPassing clouds.9 mph77%29.98 "HgN/A
10:50 AM57 °FPassing clouds.8 mph82%29.98 "HgN/A
10:20 AM55 °FPassing clouds.8 mph82%29.98 "HgN/A
9:50 AM54 °FPassing clouds.7 mph88%29.98 "HgN/A
9:20 AM54 °FPassing clouds.7 mph88%29.98 "HgN/A
8:50 AM52 °FPassing clouds.7 mph94%29.98 "HgN/A
8:20 AM52 °FFog.7 mph94%29.98 "Hg3 mi
Weather by CustomWeather, © 2015

See weather overviewHow to use our weather pages